FW2918 Weather Reports


Display with metric or nautical units.
time (UTC)temp
F
wind
direction
speed
MPH
gust
MPH
rain 1hr
in
rain 24hr
in
rain mn
in
humidity
%
barometer
mb
20260507065412 42 56 2.0 10.0 0.01 0.24 0.03 95 1010.8
20260507064910 42 99 2.0 10.0 0.01 0.24 0.03 95 1010.8
20260507064404 42 82 2.0 8.0 0.01 0.24 0.03 95 1010.9
20260507063904 42 86 2.0 9.0 0.01 0.24 0.03 95 1010.8
20260507063400 42 49 2.0 9.0 0.02 0.24 0.03 95 1010.8
20260507062858 42 71 2.0 6.0 0.02 0.24 0.03 95 1010.9
20260507062357 42 101 2.0 6.0 0.02 0.24 0.03 95 1010.9
20260507061858 42 101 2.0 7.0 0.02 0.24 0.03 95 1010.8
20260507061618 42 71 2.0 8.0 0.02 0.24 0.03 95 1010.8
20260507060855 42 74 2.0 8.0 0.02 0.24 0.03 95 1010.9
20260507060356 42 67 2.0 7.0 0.02 0.23 0.02 95 1010.8
20260507055855 41 71 2.0 8.0 0.02 0.23 0.02 95 1010.8
20260507055840 41 84 1.0 8.0 0.02 0.23 0.02 95 1010.8
20260507054902 41 85 1.0 4.0 0.02 0.23 0.02 95 1010.9
20260507054356 41 88 1.0 4.0 0.02 0.23 0.02 95 1011.0
20260507053855 41 26 1.0 7.0 0.02 0.23 0.02 95 1011.0
20260507053355 41 119 1.0 7.0 0.01 0.22 0.02 94 1011.0
20260507053116 41 86 2.0 9.0 0.01 0.22 0.02 94 1010.9
20260507052353 41 94 2.0 9.0 0.01 0.22 0.02 94 1010.8
20260507051854 41 90 2.0 7.0 0.01 0.22 0.02 94 1010.7
20260507051355 41 73 2.0 7.0 0.00 0.21 0.01 94 1010.8
20260507050854 41 82 2.0 7.0 0.00 0.21 0.01 93 1010.8
20260507050351 41 75 2.0 7.0 0.00 0.21 0.01 93 1010.8
20260507045852 41 83 2.0 4.0 0.00 0.21 0.01 92 1010.8
20260507045351 41 69 2.0 6.0 0.00 0.21 0.01 92 1010.7
20260507045110 42 318 2.0 6.0 0.00 0.21 0.01 92 1010.7
20260507044349 42 64 2.0 9.0 0.00 0.21 0.01 92 1010.7
20260507043847 42 78 2.0 9.0 0.00 0.21 0.01 92 1010.8
20260507043348 42 59 2.0 7.0 0.00 0.21 0.01 92 1010.7
20260507042849 42 304 2.0 8.0 0.00 0.21 0.01 92 1010.6
20260507042347 42 57 2.0 9.0 0.00 0.21 0.01 92 1010.5
20260507041846 42 53 2.0 9.0 0.00 0.21 0.01 92 1010.4
20260507041345 42 43 2.0 6.0 0.00 0.21 0.01 92 1010.3
20260507041110 42 82 2.0 8.0 0.00 0.21 0.01 92 1010.5
20260507040609 42 86 2.0 10.0 0.00 0.21 0.01 92 1010.1
20260507035847 42 85 2.0 10.0 0.00 0.21 0.01 92 1010.1
20260507035602 42 86 2.0 8.0 0.00 0.21 0.01 92 1010.3
20260507034844 42 71 2.0 7.0 0.00 0.21 0.01 92 1010.2
20260507034345 42 63 1.0 7.0 0.00 0.21 0.01 92 1010.2
20260507033843 42 96 2.0 8.0 0.00 0.21 0.01 92 1010.3
20260507033344 42 310 2.0 8.0 0.00 0.21 0.01 92 1010.2
20260507032843 42 14 2.0 5.0 0.00 0.21 0.01 92 1010.0
20260507032345 42 92 2.0 8.0 0.01 0.21 0.01 92 1009.9
20260507031843 42 73 2.0 8.0 0.01 0.21 0.01 92 1009.8
20260507031341 42 107 2.0 6.0 0.01 0.21 0.01 92 1009.9
20260507030840 42 45 2.0 9.0 0.01 0.21 0.01 92 1009.9
20260507030607 42 54 1.0 9.0 0.01 0.21 0.01 92 1010.0
20260507025828 42 36 1.0 8.0 0.01 0.21 0.01 92 1010.0
20260507025324 41 19 1.0 8.0 0.01 0.21 0.01 92 1009.9
20260507024819 41 15 1.0 8.0 0.01 0.21 0.01 92 1010.0
20260507024319 41 77 2.0 8.0 0.01 0.21 0.01 92 1009.9
20260507023815 41 355 2.0 6.0 0.01 0.21 0.01 92 1010.0
20260507023315 41 15 2.0 11.0 0.01 0.21 0.01 92 1010.2
20260507022816 41 80 2.0 11.0 0.01 0.21 0.01 92 1010.1
20260507022539 41 92 2.0 8.0 0.00 0.20 0.00 92 1010.0
20260507021815 41 60 2.0 10.0 0.00 0.20 0.00 93 1009.9
20260507021309 41 45 2.0 10.0 0.00 0.20 0.00 93 1010.3
20260507020802 41 34 2.0 6.0 0.00 0.20 0.00 93 1010.3
20260507020300 41 288 2.0 6.0 0.00 0.20 0.00 93 1010.3
20260507015759 41 65 2.0 6.0 0.00 0.20 0.00 93 1010.2
20260507015258 41 333 2.0 8.0 0.00 0.20 0.00 93 1010.1
20260507014800 41 355 2.0 8.0 0.00 0.20 0.00 93 1010.2
20260507014259 41 72 2.0 5.0 0.00 0.20 0.00 93 1009.9
20260507014021 41 84 3.0 12.0 0.00 0.20 0.00 93 1010.1
20260507013301 41 62 4.0 12.0 0.00 0.20 0.00 93 1009.7
20260507012758 41 90 3.0 9.0 0.00 0.20 0.00 93 1009.6
20260507012257 41 87 3.0 9.0 0.00 0.20 0.00 93 1009.7
20260507011758 41 44 2.0 6.0 0.00 0.20 0.00 93 1009.9
20260507011257 41 342 1.0 4.0 0.00 0.20 0.00 93 1010.2
20260507011017 41 82 1.0 7.0 0.00 0.20 0.00 93 1010.2
20260507010528 41 350 2.0 7.0 0.00 0.20 0.00 93 1010.2
20260507005757 41 327 2.0 8.0 0.00 0.20 0.00 93 1010.3
20260507005257 41 322 2.0 8.0 0.00 0.20 0.00 93 1010.2
20260507004753 41 41 1.0 9.0 0.00 0.20 0.00 93 1010.1
20260507004252 41 277 1.0 9.0 0.00 0.20 0.00 93 1010.2
20260507003751 41 325 1.0 5.0 0.00 0.20 0.00 93 1010.2
20260507003247 41 321 1.0 5.0 0.00 0.20 0.00 93 1010.3
20260507003232 41 320 1.0 7.0 0.00 0.20 0.00 93 1010.4
20260507002247 41 321 2.0 7.0 0.00 0.20 0.00 93 1010.5
20260507001746 41 355 2.0 6.0 0.00 0.20 0.00 93 1010.1
20260507001246 41 89 1.0 5.0 0.00 0.20 0.00 93 1010.0
20260507000746 41 118 1.0 4.0 0.00 0.20 0.00 93 1010.0
20260507000245 41 85 2.0 7.0 0.00 0.20 0.00 93 1009.9
20260506235748 41 100 2.0 7.0 0.00 0.20 0.00 93 1010.0
20260506235245 41 84 1.0 7.0 0.00 0.20 0.00 93 1009.9
20260506234746 41 115 2.0 7.0 0.00 0.20 0.00 93 1010.0
20260506234240 41 70 2.0 7.0 0.00 0.20 0.00 93 1010.0
20260506234223 41 55 1.0 7.0 0.00 0.20 0.00 93 1010.0
20260506233242 41 84 1.0 7.0 0.00 0.20 0.00 93 1010.2
20260506232742 41 99 1.0 7.0 0.00 0.20 0.00 93 1010.1
20260506232235 41 85 1.0 4.0 0.00 0.20 0.00 93 1010.0
20260506231730 41 89 1.0 6.0 0.00 0.20 0.00 93 1010.1
20260506231240 41 298 1.0 6.0 0.00 0.20 0.00 93 1010.1
20260506230727 41 55 1.0 10.0 0.00 0.20 0.00 94 1010.2
20260506230226 41 344 1.0 10.0 0.00 0.20 0.00 94 1010.2
20260506225727 41 107 1.0 6.0 0.00 0.20 0.00 94 1010.4
20260506225453 41 85 2.0 7.0 0.00 0.20 0.00 94 1010.5
20260506224951 41 89 1.0 7.0 0.00 0.20 0.00 94 1010.6
20260506224226 41 86 1.0 7.0 0.00 0.20 0.00 94 1010.5
20260506223728 41 61 1.0 4.0 0.00 0.20 0.00 94 1010.5
20260506223225 41 67 2.0 8.0 0.00 0.20 0.00 94 1010.6
20260506222725 41 91 2.0 8.0 0.00 0.20 0.00 94 1010.7
20260506222224 41 67 2.0 6.0 0.00 0.20 0.00 94 1010.8
20260506221724 41 90 2.0 6.0 0.00 0.20 0.00 94 1010.7
20260506221223 41 105 2.0 6.0 0.00 0.20 0.00 94 1010.6
20260506220722 41 40 2.0 6.0 0.00 0.20 0.00 94 1010.5
20260506220223 41 85 3.0 8.0 0.00 0.20 0.00 94 1010.5
20260506215724 41 76 3.0 8.0 0.00 0.20 0.00 94 1010.5
20260506215223 41 78 2.0 8.0 0.00 0.20 0.00 94 1010.7
20260506214723 41 80 2.0 8.0 0.00 0.20 0.00 94 1010.8
20260506214445 41 86 3.0 6.0 0.00 0.20 0.00 94 1010.5
20260506213944 41 77 3.0 7.0 0.00 0.20 0.00 94 1010.3
20260506213218 42 89 3.0 7.0 0.00 0.20 0.00 94 1010.5
20260506212719 42 73 2.0 7.0 0.00 0.20 0.00 94 1010.6
20260506212220 42 82 1.0 4.0 0.00 0.20 0.00 94 1010.8
20260506211718 42 86 2.0 6.0 0.00 0.20 0.00 94 1010.9
20260506211218 42 42 2.0 10.0 0.00 0.20 0.00 94 1010.7
20260506210720 42 81 2.0 10.0 0.00 0.20 0.00 94 1010.7
20260506210216 42 86 2.0 10.0 0.00 0.20 0.00 94 1010.7
20260506205717 42 65 2.0 10.0 0.00 0.20 0.20 94 1010.9
20260506205215 42 82 3.0 9.0 0.00 0.20 0.20 94 1010.9
20260506204941 42 90 3.0 9.0 0.00 0.20 0.20 94 1010.7
20260506204215 42 121 3.0 13.0 0.00 0.20 0.20 94 1010.7
20260506203714 42 71 4.0 13.0 0.01 0.20 0.20 94 1010.7
20260506203214 42 103 4.0 11.0 0.01 0.20 0.20 94 1010.7
20260506202714 42 84 3.0 11.0 0.01 0.20 0.20 94 1010.6
20260506202208 42 68 2.0 10.0 0.01 0.20 0.20 95 1010.6
20260506201706 42 49 3.0 10.0 0.01 0.20 0.20 95 1010.8
20260506201207 42 82 2.0 7.0 0.01 0.20 0.20 94 1011.1
20260506200705 42 88 2.0 7.0 0.01 0.20 0.20 94 1010.8
20260506200218 42 58 2.0 6.0 0.01 0.20 0.20 94 1010.9
20260506195705 42 77 3.0 12.0 0.02 0.20 0.20 94 1011.0
20260506195201 42 50 2.0 12.0 0.02 0.20 0.20 94 1011.0
20260506194700 42 92 1.0 4.0 0.02 0.20 0.20 94 1011.1
20260506194200 42 78 1.0 7.0 0.02 0.20 0.20 94 1011.2
20260506193657 42 63 1.0 7.0 0.02 0.20 0.20 94 1011.0
20260506193415 42 99 1.0 3.0 0.02 0.20 0.20 94 1011.2
20260506192656 42 102 1.0 3.0 0.02 0.20 0.20 94 1011.3
20260506192205 42 103 1.0 3.0 0.02 0.20 0.20 94 1011.4
20260506191652 42 103 1.0 3.0 0.02 0.20 0.20 94 1011.5
20260506191151 42 90 1.0 3.0 0.03 0.20 0.20 94 1011.5
20260506190651 42 90 1.0 3.0 0.03 0.20 0.20 94 1011.5
20260506190147 42 92 1.0 6.0 0.03 0.20 0.20 94 1011.4
20260506185646 42 5 1.0 6.0 0.03 0.19 0.19 94 1011.5
20260506185055 42 76 1.0 7.0 0.04 0.19 0.19 94 1011.5
20260506184553 42 83 1.0 7.0 0.04 0.19 0.19 94 1011.4
20260506184311 43 92 1.0 6.0 0.05 0.18 0.18 95 1011.3
20260506183553 42 88 1.0 4.0 0.06 0.18 0.18 95 1011.2
20260506183053 43 84 1.0 4.0 0.06 0.18 0.18 94 1011.2
20260506182551 43 84 1.0 6.0 0.06 0.18 0.18 94 1011.3
20260506182051 43 84 1.0 6.0 0.07 0.17 0.17 94 1011.3
20260506181602 43 96 0.0 3.0 0.07 0.17 0.17 94 1011.4
20260506181049 43 96 0.0 2.0 0.07 0.17 0.17 94 1011.5
20260506181027 43 96 0.0 1.0 0.07 0.17 0.17 94 1011.5
20260506180104 43 96 0.0 2.0 0.07 0.16 0.17 94 1011.5
20260506175549 43 96 0.0 2.0 0.07 0.16 0.16 94 1011.5
20260506175049 43 96 0.0 0.0 0.07 0.15 0.15 93 1011.6
20260506174549 43 96 0.0 2.0 0.08 0.15 0.15 93 1011.6
20260506174530 43 96 0.0 2.0 0.07 0.13 0.13 93 1011.5
20260506173536 43 96 0.0 2.0 0.07 0.13 0.13 92 1011.5
20260506173039 43 96 0.0 3.0 0.06 0.12 0.12 92 1011.3
20260506172537 43 97 0.0 3.0 0.07 0.11 0.12 92 1011.3
20260506172035 43 95 0.0 3.0 0.06 0.10 0.10 92 1011.3
20260506171535 43 355 0.0 2.0 0.08 0.10 0.10 91 1011.3
20260506171033 43 355 0.0 2.0 0.08 0.09 0.09 91 1011.4
20260506170531 43 85 0.0 1.0 0.08 0.09 0.09 90 1011.4
20260506170031 44 85 0.0 3.0 0.07 0.09 0.09 90 1011.4
20260506165531 44 85 1.0 4.0 0.08 0.09 0.09 89 1011.5
20260506165033 44 85 1.0 4.0 0.07 0.08 0.08 88 1011.6
20260506164531 44 73 2.0 8.0 0.07 0.07 0.07 88 1011.6
20260506164031 44 69 3.0 8.0 0.06 0.06 0.07 86 1011.7
20260506163530 45 51 3.0 7.0 0.06 0.06 0.06 85 1011.8
20260506163257 45 56 4.0 9.0 0.05 0.05 0.06 84 1011.9
20260506162529 46 86 3.0 9.0 0.04 0.04 0.04 83 1011.9
20260506162307 46 88 3.0 8.0 0.03 0.03 0.04 81 1012.1
20260506161525 47 84 3.0 9.0 0.02 0.02 0.02 79 1012.1
20260506161038 47 123 3.0 9.0 0.02 0.02 0.02 78 1012.0
20260506160525 47 93 1.0 7.0 0.02 0.02 0.02 77 1012.0
20260506160039 47 65 1.0 6.0 0.02 0.02 0.02 77 1011.8
20260506155525 48 65 1.0 9.0 0.01 0.01 0.02 74 1011.9
20260506155025 48 78 3.0 9.0 0.01 0.01 0.01 73 1011.7
20260506155011 49 61 3.0 11.0 0.00 0.00 0.01 71 1011.5
20260506154021 49 57 2.0 11.0 0.00 0.00 0.00 69 1011.1
20260506153745 49 98 2.0 8.0 0.00 0.00 0.00 68 1011.1
20260506153020 50 88 3.0 8.0 0.00 0.00 0.00 66 1011.2
20260506152521 51 76 4.0 9.0 0.00 0.00 0.00 61 1011.4
20260506152022 51 81 5.0 13.0 0.00 0.00 0.00 63 1011.4
20260506151521 51 49 4.0 13.0 0.00 0.00 0.00 59 1011.3
20260506151021 51 94 5.0 17.0 0.00 0.00 0.00 60 1011.3
20260506150521 52 186 5.0 17.0 0.00 0.00 0.00 54 1011.2
20260506150021 53 59 3.0 13.0 0.00 0.00 0.00 51 1011.0
20260506145518 54 131 1.0 4.0 0.00 0.00 0.00 49 1010.9
20260506145014 54 92 1.0 5.0 0.00 0.00 0.00 46 1010.6
20260506144515 54 96 1.0 5.0 0.00 0.00 0.00 47 1010.5
20260506144016 54 77 1.0 8.0 0.00 0.00 0.00 46 1010.3
20260506143514 54 88 2.0 8.0 0.00 0.00 0.00 45 1010.2
20260506143239 54 89 2.0 6.0 0.00 0.00 0.00 45 1010.4
20260506142740 54 90 2.0 6.0 0.00 0.00 0.00 45 1010.4
20260506142016 55 74 2.0 5.0 0.00 0.00 0.00 46 1010.6
20260506141514 55 74 2.0 8.0 0.00 0.00 0.00 44 1010.7
20260506141015 55 79 1.0 8.0 0.00 0.00 0.00 44 1010.8
20260506140510 55 78 2.0 8.0 0.00 0.00 0.00 46 1010.7
20260506140010 55 73 2.0 9.0 0.00 0.00 0.00 43 1010.6
20260506135509 55 93 2.0 9.0 0.00 0.00 0.00 46 1010.8
20260506135009 55 76 2.0 7.0 0.00 0.00 0.00 43 1010.9
20260506134510 55 84 2.0 7.0 0.00 0.00 0.00 43 1010.9
20260506134006 55 98 2.0 7.0 0.00 0.00 0.00 44 1011.1
20260506133507 55 67 1.0 7.0 0.00 0.00 0.00 44 1011.1
20260506133006 55 78 1.0 7.0 0.00 0.00 0.00 43 1011.2
20260506132818 55 36 1.0 6.0 0.00 0.00 0.00 44 1011.0
20260506132711 55 61 2.0 6.0 0.00 0.00 0.00 41 1011.2
20260506131506 55 68 2.0 8.0 0.00 0.00 0.00 43 1011.0
20260506131017 56 88 3.0 8.0 0.00 0.00 0.00 44 1011.3
20260506130503 56 74 2.0 5.0 0.00 0.00 0.00 44 1011.6
20260506130003 56 92 2.0 6.0 0.00 0.00 0.00 44 1011.6
20260506125505 56 19 2.0 6.0 0.00 0.00 0.00 44 1011.8
20260506125002 56 49 1.0 5.0 0.00 0.00 0.00 43 1011.9
20260506124503 56 42 2.0 7.0 0.00 0.00 0.00 42 1011.9
20260506124002 56 52 3.0 10.0 0.00 0.00 0.00 44 1012.0
20260506123504 56 82 3.0 10.0 0.00 0.00 0.00 45 1012.2
20260506123002 56 42 2.0 8.0 0.00 0.00 0.00 46 1012.3
20260506122502 56 330 3.0 8.0 0.00 0.00 0.00 41 1012.4
20260506122004 57 340 2.0 8.0 0.00 0.00 0.00 40 1012.2
20260506121504 58 55 2.0 7.0 0.00 0.00 0.00 43 1012.3
20260506121002 58 59 2.0 8.0 0.00 0.00 0.00 45 1012.3
20260506120456 57 336 2.0 8.0 0.00 0.00 0.00 44 1012.4
20260506115956 58 111 3.0 10.0 0.00 0.00 0.00 42 1012.3
20260506115458 57 351 3.0 11.0 0.00 0.00 0.00 42 1012.3
20260506115217 57 61 3.0 11.0 0.00 0.00 0.00 44 1012.3
20260506114458 58 22 3.0 6.0 0.00 0.00 0.00 50 1012.2
20260506113954 58 80 3.0 10.0 0.00 0.00 0.00 47 1012.3
20260506113944 58 5 3.0 10.0 0.00 0.00 0.00 46 1012.1
20260506112952 57 58 2.0 8.0 0.00 0.00 0.00 43 1012.0
20260506112451 58 95 3.0 9.0 0.00 0.00 0.00 44 1012.2
20260506111949 57 65 3.0 10.0 0.00 0.00 0.00 41 1012.1
20260506111449 58 348 3.0 10.0 0.00 0.00 0.00 48 1012.0
20260506111210 57 69 3.0 8.0 0.00 0.00 0.00 47 1012.1
20260506110448 56 59 5.0 9.0 0.00 0.00 0.00 47 1012.1
20260506110441 56 86 5.0 13.0 0.00 0.00 0.00 45 1011.9
20260506105449 57 51 4.0 13.0 0.00 0.00 0.00 44 1012.0
20260506104948 57 57 4.0 10.0 0.00 0.00 0.00 43 1011.9
20260506104449 56 146 3.0 10.0 0.00 0.00 0.00 46 1012.1
20260506103948 57 54 2.0 9.0 0.00 0.00 0.00 51 1012.0
20260506103448 55 327 3.0 11.0 0.00 0.00 0.00 44 1012.1
20260506102950 56 102 5.0 11.0 0.00 0.00 0.00 46 1012.2
20260506102448 56 27 7.0 13.0 0.00 0.00 0.00 46 1012.0
20260506102211 56 331 5.0 13.0 0.00 0.00 0.00 47 1012.2
20260506101450 56 322 3.0 10.0 0.00 0.00 0.00 43 1012.3
20260506100947 56 55 7.0 14.0 0.00 0.00 0.00 44 1012.4
20260506100442 56 15 6.0 14.0 0.00 0.00 0.00 48 1012.4
20260506095942 56 333 4.0 10.0 0.00 0.00 0.00 48 1012.4
20260506095439 55 304 4.0 12.0 0.00 0.00 0.00 43 1012.4
20260506095419 55 77 5.0 12.0 0.00 0.00 0.00 43 1012.5
20260506094437 55 279 5.0 15.0 0.00 0.00 0.00 44 1012.5
20260506093936 54 82 5.0 15.0 0.00 0.00 0.00 44 1012.6
20260506093436 54 337 4.0 12.0 0.00 0.00 0.00 45 1012.6
20260506092936 55 19 4.0 12.0 0.00 0.00 0.00 46 1012.8
20260506092437 55 324 3.0 11.0 0.00 0.00 0.00 46 1012.8
20260506091932 55 330 3.0 11.0 0.00 0.00 0.00 44 1012.8
20260506091432 54 57 3.0 11.0 0.00 0.00 0.00 44 1013.0
20260506090931 54 23 5.0 12.0 0.00 0.00 0.00 48 1013.0
20260506090653 54 9 4.0 12.0 0.00 0.00 0.00 46 1013.0
20260506085931 53 342 3.0 10.0 0.00 0.00 0.00 48 1013.2
20260506085653 53 89 3.0 10.0 0.00 0.00 0.00 50 1013.0
20260506084931 53 321 3.0 9.0 0.00 0.00 0.00 47 1013.1
20260506084432 53 324 3.0 9.0 0.00 0.00 0.00 49 1013.0
20260506083930 53 323 3.0 10.0 0.00 0.00 0.00 49 1013.1
20260506083430 53 355 3.0 11.0 0.00 0.00 0.00 46 1013.2
20260506082942 53 57 2.0 11.0 0.00 0.00 0.00 48 1013.1
20260506082431 53 78 2.0 7.0 0.00 0.00 0.00 47 1013.1
20260506081929 53 81 3.0 8.0 0.00 0.00 0.00 45 1013.2
20260506081430 52 80 2.0 8.0 0.00 0.00 0.00 45 1013.2
20260506080930 52 80 3.0 9.0 0.00 0.00 0.00 52 1013.2
20260506080425 52 325 3.0 9.0 0.00 0.00 0.00 51 1013.4
20260506073417 51 19 3.0 10.0 0.00 0.00 0.00 54 1013.1
20260506072918 50 350 3.0 10.0 0.00 0.00 0.00 58 1013.2
20260506072859 51 326 2.0 5.0 0.00 0.00 0.00 56 1013.2
20260506071919 50 84 3.0 8.0 0.00 0.00 0.00 54 1013.2
20260506071644 49 350 3.0 8.0 0.00 0.00 0.00 56 1013.1
20260506070918 50 66 2.0 6.0 0.00 0.00 0.00 57 1013.2
20260506070419 50 72 2.0 6.0 0.00 0.00 0.00 54 1013.1